Time,TemperatureF,DewpointF,PressureIn,WindDirection,WindDirectionDegrees,WindSpeedMPH,WindSpeedGustMPH,Humidity,HourlyPrecipIn,Conditions,Clouds,dailyrainin,SolarRadiationWatts/m^2,SoftwareType,DateUTC
2013-08-11 00:04:00,57.4,44.0,25.47,South,180,0.0,0.0,61,0.00,RA,,0.00,0.0,WeatherDisplay:10.37,2013-08-11 06:04:00,
2013-08-11 00:09:00,57.0,44.1,25.47,South,180,0.0,0.0,62,0.00,RA,,0.00,0.0,WeatherDisplay:10.37,2013-08-11 06:09:00,
2013-08-11 00:14:00,57.0,44.1,25.47,South,180,0.0,0.0,62,0.00,CLR,,0.00,0.0,WeatherDisplay:10.37,2013-08-11 06:14:00,
2013-08-11 00:19:00,56.8,44.8,25.48,South,180,2.3,2.3,64,0.00,CLR,,0.00,0.0,WeatherDisplay:10.37,2013-08-11 06:19:00,
2013-08-11 00:24:00,56.8,44.4,25.47,South,180,2.3,2.3,63,0.00,CLR,,0.00,0.0,WeatherDisplay:10.37,2013-08-11 06:24:00,
2013-08-11 00:29:00,56.8,44.4,25.48,South,180,0.0,0.0,63,0.00,CLR,,0.00,0.0,WeatherDisplay:10.37,2013-08-11 06:29:00,
2013-08-11 00:34:00,56.8,44.4,25.48,SW,225,0.0,0.0,63,0.00,CLR,,0.00,0.0,WeatherDisplay:10.37,2013-08-11 06:34:00,
2013-08-11 00:39:00,57.0,45.0,25.48,South,180,0.0,0.0,64,0.00,CLR,,0.00,0.0,WeatherDisplay:10.37,2013-08-11 06:39:00,
2013-08-11 00:44:00,57.0,44.5,25.48,South,180,2.3,2.3,63,0.00,CLR,,0.00,0.0,WeatherDisplay:10.37,2013-08-11 06:44:00,
2013-08-11 00:50:00,57.2,44.3,25.48,South,180,0.0,0.0,62,0.00,CLR,,0.00,0.0,WeatherDisplay:10.37,2013-08-11 06:50:00,
2013-08-11 00:55:00,57.4,44.9,25.47,South,180,0.0,0.0,63,0.00,CLR,,0.00,0.0,WeatherDisplay:10.37,2013-08-11 06:55:00,
2013-08-11 01:00:00,57.2,44.3,25.47,South,180,1.2,1.2,62,0.00,CLR,,0.00,0.0,WeatherDisplay:10.37,2013-08-11 07:00:00,
2013-08-11 01:05:00,57.2,44.3,25.47,South,180,1.2,0.0,62,0.00,CLR,,0.00,0.0,WeatherDisplay:10.37,2013-08-11 07:05:00,
2013-08-11 01:10:00,56.7,42.9,25.46,South,180,0.0,0.0,60,0.00,CLR,,0.00,0.0,WeatherDisplay:10.37,2013-08-11 07:10:00,
2013-08-11 01:15:00,56.5,44.0,25.46,West,270,0.0,0.0,63,0.00,CLR,,0.00,0.0,WeatherDisplay:10.37,2013-08-11 07:15:00,
2013-08-11 01:20:00,56.1,44.1,25.46,West,270,0.0,0.0,64,0.00,CLR,,0.00,0.0,WeatherDisplay:10.37,2013-08-11 07:20:00,
2013-08-11 01:25:00,55.8,42.9,25.46,South,180,1.2,0.0,62,0.00,CLR,,0.00,0.0,WeatherDisplay:10.37,2013-08-11 07:25:00,
2013-08-11 01:31:00,55.4,43.0,25.46,South,180,1.2,1.2,63,0.00,CLR,,0.00,0.0,WeatherDisplay:10.37,2013-08-11 07:31:00,
2013-08-11 01:36:00,55.0,42.7,25.45,SW,225,0.0,0.0,63,0.00,CLR,,0.00,0.0,WeatherDisplay:10.37,2013-08-11 07:36:00,
2013-08-11 01:41:00,54.7,43.1,25.46,SW,225,0.0,0.0,65,0.00,CLR,,0.00,0.0,WeatherDisplay:10.37,2013-08-11 07:41:00,
2013-08-11 01:46:00,54.3,42.4,25.46,SE,135,2.3,2.3,64,0.00,CLR,,0.00,0.0,WeatherDisplay:10.37,2013-08-11 07:46:00,
2013-08-11 01:52:00,54.0,42.1,25.46,South,180,0.0,0.0,64,0.00,CLR,,0.00,0.0,WeatherDisplay:10.37,2013-08-11 07:52:00,
2013-08-11 01:57:00,53.6,42.1,25.46,SW,225,2.3,2.3,65,0.00,CLR,,0.00,0.0,WeatherDisplay:10.37,2013-08-11 07:57:00,
2013-08-11 02:02:00,53.4,41.9,25.46,South,180,1.2,0.0,65,0.00,CLR,,0.00,0.0,WeatherDisplay:10.37,2013-08-11 08:02:00,
2013-08-11 02:07:00,53.2,42.2,25.46,South,180,1.2,0.0,66,0.00,CLR,,0.00,0.0,WeatherDisplay:10.37,2013-08-11 08:07:00,
2013-08-11 02:12:00,53.1,42.0,25.47,South,180,1.2,1.2,66,0.00,CLR,,0.00,0.0,WeatherDisplay:10.37,2013-08-11 08:12:00,
2013-08-11 02:17:00,52.9,41.8,25.46,SW,225,1.2,0.0,66,0.00,CLR,,0.00,0.0,WeatherDisplay:10.37,2013-08-11 08:17:00,
2013-08-11 02:22:00,52.7,42.0,25.47,North,0,1.2,0.0,67,0.00,CLR,,0.00,0.0,WeatherDisplay:10.37,2013-08-11 08:22:00,
2013-08-11 02:27:00,52.3,41.7,25.47,SW,225,0.0,0.0,67,0.00,CLR,,0.00,0.0,WeatherDisplay:10.37,2013-08-11 08:27:00,
2013-08-11 02:32:00,52.2,41.5,25.47,South,180,2.3,0.0,67,0.00,CLR,,0.00,0.0,WeatherDisplay:10.37,2013-08-11 08:32:00,
2013-08-11 02:37:00,52.0,41.7,25.47,South,180,1.2,0.0,68,0.00,CLR,,0.00,0.0,WeatherDisplay:10.37,2013-08-11 08:37:00,
2013-08-11 02:43:00,51.6,41.4,25.47,South,180,1.2,0.0,68,0.00,CLR,,0.00,0.0,WeatherDisplay:10.37,2013-08-11 08:43:00,
2013-08-11 02:48:00,51.6,41.4,25.47,South,180,1.2,1.2,68,0.00,CLR,,0.00,0.0,WeatherDisplay:10.37,2013-08-11 08:48:00,
2013-08-11 02:53:00,51.4,41.2,25.47,South,180,0.0,0.0,68,0.00,CLR,,0.00,0.0,WeatherDisplay:10.37,2013-08-11 08:53:00,
2013-08-11 02:58:00,51.3,41.4,25.47,South,180,2.3,0.0,69,0.00,CLR,,0.00,0.0,WeatherDisplay:10.37,2013-08-11 08:58:00,
2013-08-11 03:03:00,51.3,41.1,25.46,South,180,2.3,2.3,68,0.00,CLR,,0.00,0.0,WeatherDisplay:10.37,2013-08-11 09:03:00,
2013-08-11 03:08:00,51.3,41.1,25.47,South,180,2.3,0.0,68,0.00,CLR,,0.00,0.0,WeatherDisplay:10.37,2013-08-11 09:08:00,
2013-08-11 03:14:00,51.1,40.9,25.47,SW,225,0.0,0.0,68,0.00,CLR,,0.00,0.0,WeatherDisplay:10.37,2013-08-11 09:14:00,
2013-08-11 03:19:00,51.1,40.9,25.46,SW,225,1.2,0.0,68,0.00,CLR,,0.00,0.0,WeatherDisplay:10.37,2013-08-11 09:19:00,
2013-08-11 03:24:00,51.1,41.3,25.46,NW,315,0.0,0.0,69,0.00,CLR,,0.00,0.0,WeatherDisplay:10.37,2013-08-11 09:24:00,
2013-08-11 03:29:00,50.9,41.1,25.47,SW,225,0.0,0.0,69,0.00,CLR,,0.00,0.0,WeatherDisplay:10.37,2013-08-11 09:29:00,
2013-08-11 03:34:00,50.5,40.7,25.47,NW,315,0.0,0.0,69,0.00,CLR,,0.00,0.0,WeatherDisplay:10.37,2013-08-11 09:34:00,
2013-08-11 03:39:00,50.4,40.9,25.46,South,180,0.0,0.0,70,0.00,CLR,,0.00,0.0,WeatherDisplay:10.37,2013-08-11 09:39:00,
2013-08-11 03:44:00,50.0,40.6,25.46,West,270,0.0,0.0,70,0.00,CLR,,0.00,0.0,WeatherDisplay:10.37,2013-08-11 09:44:00,
2013-08-11 03:49:00,49.8,40.4,25.46,SW,225,0.0,0.0,70,0.00,CLR,,0.00,0.0,WeatherDisplay:10.37,2013-08-11 09:49:00,
2013-08-11 03:55:00,49.5,40.4,25.47,SW,225,0.0,0.0,71,0.00,CLR,,0.00,0.0,WeatherDisplay:10.37,2013-08-11 09:55:00,
2013-08-11 04:00:00,49.3,40.3,25.46,SE,135,0.0,0.0,71,0.00,CLR,,0.00,0.0,WeatherDisplay:10.37,2013-08-11 10:00:00,
2013-08-11 04:05:00,49.3,40.3,25.47,SE,135,0.0,0.0,71,0.00,CLR,,0.00,0.0,WeatherDisplay:10.37,2013-08-11 10:05:00,
2013-08-11 04:10:00,49.1,40.1,25.46,South,180,1.2,0.0,71,0.00,CLR,,0.00,0.0,WeatherDisplay:10.37,2013-08-11 10:10:00,
2013-08-11 04:16:00,48.9,40.3,25.46,South,180,1.2,0.0,72,0.00,CLR,,0.00,0.0,WeatherDisplay:10.37,2013-08-11 10:16:00,
2013-08-11 04:21:00,48.7,40.1,25.46,South,180,1.2,0.0,72,0.00,CLR,,0.00,0.0,WeatherDisplay:10.37,2013-08-11 10:21:00,
2013-08-11 04:26:00,48.6,40.3,25.46,South,180,1.2,1.2,73,0.00,CLR,,0.00,0.0,WeatherDisplay:10.37,2013-08-11 10:26:00,
2013-08-11 04:31:00,48.7,40.5,25.46,South,180,2.3,2.3,73,0.00,CLR,,0.00,0.0,WeatherDisplay:10.37,2013-08-11 10:31:00,
2013-08-11 04:36:00,48.7,40.5,25.45,South,180,0.0,0.0,73,0.00,CLR,,0.00,0.0,WeatherDisplay:10.37,2013-08-11 10:36:00,
2013-08-11 04:42:00,48.6,40.3,25.45,SW,225,0.0,0.0,73,0.00,CLR,,0.00,0.0,WeatherDisplay:10.37,2013-08-11 10:42:00,
2013-08-11 04:47:00,48.4,40.1,25.45,SW,225,0.0,0.0,73,0.00,CLR,,0.00,0.0,WeatherDisplay:10.37,2013-08-11 10:47:00,
2013-08-11 04:52:00,48.2,39.9,25.45,SW,225,0.0,0.0,73,0.00,CLR,,0.00,0.0,WeatherDisplay:10.37,2013-08-11 10:52:00,
2013-08-11 04:57:00,48.0,39.8,25.45,SW,225,0.0,0.0,73,0.00,CLR,,0.00,0.0,WeatherDisplay:10.37,2013-08-11 10:57:00,
2013-08-11 05:02:00,47.8,40.0,25.45,SW,225,0.0,0.0,74,0.00,CLR,,0.00,0.0,WeatherDisplay:10.37,2013-08-11 11:02:00,
2013-08-11 05:07:00,47.8,40.0,25.45,SW,225,0.0,0.0,74,0.00,CLR,,0.00,0.0,WeatherDisplay:10.37,2013-08-11 11:07:00,
2013-08-11 05:12:00,47.3,39.8,25.45,West,270,0.0,0.0,75,0.00,CLR,,0.00,0.0,WeatherDisplay:10.37,2013-08-11 11:12:00,
2013-08-11 05:17:00,47.3,39.8,25.45,SW,225,0.0,0.0,75,0.00,CLR,,0.00,0.0,WeatherDisplay:10.37,2013-08-11 11:17:00,
2013-08-11 05:22:00,47.1,39.6,25.45,SW,225,0.0,0.0,75,0.00,CLR,,0.00,0.0,WeatherDisplay:10.37,2013-08-11 11:22:00,
2013-08-11 05:27:00,47.1,39.9,25.45,South,180,0.0,0.0,76,0.00,CLR,,0.00,0.0,WeatherDisplay:10.37,2013-08-11 11:27:00,
2013-08-11 05:32:00,47.1,40.3,25.45,South,180,0.0,0.0,77,0.00,CLR,,0.00,0.0,WeatherDisplay:10.37,2013-08-11 11:32:00,
2013-08-11 05:37:00,47.1,40.3,25.44,South,180,0.0,0.0,77,0.00,CLR,,0.00,0.0,WeatherDisplay:10.37,2013-08-11 11:37:00,
2013-08-11 05:42:00,47.1,40.3,25.45,South,180,0.0,0.0,77,0.00,CLR,,0.00,0.0,WeatherDisplay:10.37,2013-08-11 11:42:00,
2013-08-11 05:47:00,47.1,40.3,25.45,South,180,0.0,0.0,77,0.00,CLR,,0.00,0.0,WeatherDisplay:10.37,2013-08-11 11:47:00,
2013-08-11 05:52:00,47.1,40.3,25.44,South,180,0.0,0.0,77,0.00,CLR,,0.00,0.0,WeatherDisplay:10.37,2013-08-11 11:52:00,
2013-08-11 05:58:00,46.9,40.1,25.45,South,180,0.0,0.0,77,0.00,CLR,,0.00,0.0,WeatherDisplay:10.37,2013-08-11 11:58:00,
2013-08-11 06:03:00,46.9,40.1,25.45,South,180,0.0,0.0,77,0.00,CLR,,0.00,0.0,WeatherDisplay:10.37,2013-08-11 12:03:00,
2013-08-11 06:08:00,47.1,40.3,25.45,South,180,0.0,0.0,77,0.00,CLR,,0.00,0.0,WeatherDisplay:10.37,2013-08-11 12:08:00,
2013-08-11 06:14:00,46.9,40.1,25.45,South,180,0.0,0.0,77,0.00,CLR,,0.00,0.0,WeatherDisplay:10.37,2013-08-11 12:14:00,
2013-08-11 06:19:00,46.9,40.1,25.45,South,180,0.0,0.0,77,0.00,CLR,,0.00,0.0,WeatherDisplay:10.37,2013-08-11 12:19:00,
2013-08-11 06:24:00,46.8,40.3,25.45,South,180,0.0,0.0,78,0.00,CLR,,0.00,0.0,WeatherDisplay:10.37,2013-08-11 12:24:00,
2013-08-11 06:30:00,46.8,40.3,25.46,South,180,0.0,0.0,78,0.00,BKN,,0.00,1.0,WeatherDisplay:10.37,2013-08-11 12:30:00,
2013-08-11 06:35:00,46.6,40.1,25.45,SW,225,0.0,0.0,78,0.00,BKN,,0.00,0.0,WeatherDisplay:10.37,2013-08-11 12:35:00,
2013-08-11 06:40:00,46.6,40.1,25.46,SW,225,0.0,0.0,78,0.00,BKN,,0.00,0.0,WeatherDisplay:10.37,2013-08-11 12:40:00,
2013-08-11 06:45:00,46.6,40.1,25.45,SW,225,0.0,0.0,78,0.00,BKN,,0.00,7.2,WeatherDisplay:10.37,2013-08-11 12:45:00,
2013-08-11 06:50:00,46.6,40.4,25.46,SW,225,0.0,0.0,79,0.00,BKN,,0.00,9.4,WeatherDisplay:10.37,2013-08-11 12:50:00,
2013-08-11 06:55:00,46.8,40.6,25.45,SW,225,1.6,1.6,79,0.00,BKN,,0.00,0.0,WeatherDisplay:10.37,2013-08-11 12:55:00,
2013-08-11 07:00:00,46.8,40.6,25.45,SW,225,1.2,0.0,79,0.00,BKN,,0.00,0.0,WeatherDisplay:10.37,2013-08-11 13:00:00,
2013-08-11 07:05:00,46.8,40.6,25.46,SW,225,0.0,0.0,79,0.00,BKN,,0.00,16.4,WeatherDisplay:10.37,2013-08-11 13:05:00,
2013-08-11 07:10:00,46.9,40.8,25.46,South,180,1.2,0.0,79,0.00,BKN,,0.00,18.8,WeatherDisplay:10.37,2013-08-11 13:10:00,
2013-08-11 07:15:00,47.1,40.9,25.45,South,180,0.0,0.0,79,0.00,BKN,,0.00,21.3,WeatherDisplay:10.37,2013-08-11 13:15:00,
2013-08-11 07:20:00,47.3,41.1,25.46,SW,225,1.2,0.0,79,0.00,BKN,,0.00,0.0,WeatherDisplay:10.37,2013-08-11 13:20:00,
2013-08-11 07:26:00,47.3,41.4,25.46,NW,315,0.0,0.0,80,0.00,BKN,,0.00,27.0,WeatherDisplay:10.37,2013-08-11 13:26:00,
2013-08-11 07:31:00,47.5,41.6,25.46,West,270,1.2,0.0,80,0.00,SCT,,0.00,77.5,WeatherDisplay:10.37,2013-08-11 13:31:00,
2013-08-11 07:36:00,47.5,41.9,25.46,SW,225,0.0,0.0,81,0.00,SCT,,0.00,0.0,WeatherDisplay:10.37,2013-08-11 13:36:00,
2013-08-11 07:41:00,47.7,42.1,25.46,SW,225,0.0,0.0,81,0.00,SCT,,0.00,102.7,WeatherDisplay:10.37,2013-08-11 13:41:00,
2013-08-11 07:46:00,47.8,42.3,25.46,South,180,0.0,0.0,81,0.00,BKN,,0.00,0.0,WeatherDisplay:10.37,2013-08-11 13:46:00,
2013-08-11 07:52:00,48.2,42.6,25.46,South,180,0.0,0.0,81,0.00,BKN,,0.00,41.5,WeatherDisplay:10.37,2013-08-11 13:52:00,
2013-08-11 07:57:00,48.4,42.8,25.46,SW,225,1.2,0.0,81,0.00,BKN,,0.00,0.0,WeatherDisplay:10.37,2013-08-11 13:57:00,
2013-08-11 08:02:00,48.6,43.0,25.46,SW,225,1.2,0.0,81,0.00,BKN,,0.00,0.0,WeatherDisplay:10.37,2013-08-11 14:02:00,
2013-08-11 08:08:00,49.3,44.0,25.46,SW,225,1.2,0.0,82,0.00,BKN,,0.00,51.3,WeatherDisplay:10.37,2013-08-11 14:08:00,
2013-08-11 08:13:00,49.8,44.5,25.46,SW,225,0.0,0.0,82,0.00,BKN,,0.00,54.4,WeatherDisplay:10.37,2013-08-11 14:13:00,
2013-08-11 08:18:00,50.2,44.9,25.45,SW,225,0.0,0.0,82,0.00,BKN,,0.00,0.0,WeatherDisplay:10.37,2013-08-11 14:18:00,
2013-08-11 08:23:00,50.5,45.2,25.46,SW,225,0.0,0.0,82,0.00,BKN,,0.00,0.0,WeatherDisplay:10.37,2013-08-11 14:23:00,
2013-08-11 08:29:00,50.9,45.6,25.46,SW,225,0.0,0.0,82,0.00,BKN,,0.00,64.8,WeatherDisplay:10.37,2013-08-11 14:29:00,
2013-08-11 08:34:00,51.1,45.8,25.46,NW,315,0.0,0.0,82,0.00,BKN,,0.00,68.1,WeatherDisplay:10.37,2013-08-11 14:34:00,
2013-08-11 08:39:00,51.3,45.6,25.46,North,0,0.0,0.0,81,0.00,BKN,,0.00,71.6,WeatherDisplay:10.37,2013-08-11 14:39:00,
2013-08-11 08:44:00,51.4,45.8,25.46,North,0,0.0,0.0,81,0.00,BKN,,0.00,74.9,WeatherDisplay:10.37,2013-08-11 14:44:00,
2013-08-11 08:49:00,51.6,45.7,25.46,North,0,0.0,0.0,80,0.00,BKN,,0.00,78.3,WeatherDisplay:10.37,2013-08-11 14:49:00,
2013-08-11 08:54:00,52.0,46.0,25.47,South,180,0.0,0.0,80,0.00,BKN,,0.00,0.0,WeatherDisplay:10.37,2013-08-11 14:54:00,
2013-08-11 08:59:00,52.3,46.7,25.45,SW,225,0.0,0.0,81,0.00,BKN,,0.00,85.3,WeatherDisplay:10.37,2013-08-11 14:59:00,
2013-08-11 09:04:00,52.5,46.9,25.46,SW,225,0.0,0.0,81,0.00,BKN,,0.00,0.0,WeatherDisplay:10.37,2013-08-11 15:04:00,
2013-08-11 09:11:00,53.2,47.2,25.46,West,270,0.0,0.0,80,0.00,BKN,,0.00,93.7,WeatherDisplay:10.37,2013-08-11 15:11:00,
2013-08-11 09:17:00,54.0,47.9,25.46,West,270,0.0,0.0,80,0.00,BKN,,0.00,0.0,WeatherDisplay:10.37,2013-08-11 15:17:00,
2013-08-11 09:22:00,54.5,48.1,25.47,West,270,0.0,0.0,79,0.00,BKN,,0.00,101.5,WeatherDisplay:10.37,2013-08-11 15:22:00,
2013-08-11 09:27:00,55.0,48.3,25.46,NW,315,0.0,0.0,78,0.00,BKN,,0.00,104.9,WeatherDisplay:10.37,2013-08-11 15:27:00,
2013-08-11 09:32:00,55.8,49.0,25.46,North,0,0.0,0.0,78,0.00,BKN,,0.00,108.4,WeatherDisplay:10.37,2013-08-11 15:32:00,
2013-08-11 09:37:00,56.3,48.8,25.46,North,0,0.0,0.0,76,0.00,BKN,,0.00,111.9,WeatherDisplay:10.37,2013-08-11 15:37:00,
2013-08-11 09:42:00,57.0,48.8,25.47,NW,315,0.0,0.0,74,0.00,BKN,,0.00,0.0,WeatherDisplay:10.37,2013-08-11 15:42:00,
2013-08-11 09:47:00,57.9,49.3,25.46,NW,315,0.0,0.0,73,0.00,BKN,,0.00,0.0,WeatherDisplay:10.37,2013-08-11 15:47:00,
2013-08-11 09:52:00,58.8,49.4,25.46,NW,315,0.0,0.0,71,0.00,BKN,,0.00,122.5,WeatherDisplay:10.37,2013-08-11 15:52:00,
2013-08-11 09:57:00,59.9,50.1,25.46,NW,315,0.0,0.0,70,0.00,BKN,,0.00,0.0,WeatherDisplay:10.37,2013-08-11 15:57:00,
2013-08-11 10:02:00,60.3,50.0,25.46,NW,315,0.0,0.0,69,0.00,BKN,,0.00,0.0,WeatherDisplay:10.37,2013-08-11 16:02:00,
2013-08-11 10:07:00,61.7,49.8,25.47,NW,315,0.0,0.0,65,0.00,BKN,,0.00,0.0,WeatherDisplay:10.37,2013-08-11 16:07:00,
2013-08-11 10:12:00,62.4,49.2,25.46,NW,315,0.0,0.0,62,0.00,BKN,,0.00,0.0,WeatherDisplay:10.37,2013-08-11 16:12:00,
2013-08-11 10:17:00,63.1,48.6,25.45,NW,315,0.0,0.0,59,0.00,BKN,,0.00,0.0,WeatherDisplay:10.37,2013-08-11 16:17:00,
2013-08-11 10:24:00,63.9,47.4,25.46,North,0,0.0,0.0,55,0.00,BKN,,0.00,144.6,WeatherDisplay:10.37,2013-08-11 16:24:00,
2013-08-11 10:29:00,64.6,47.6,25.45,North,0,0.0,0.0,54,0.00,BKN,,0.00,148.1,WeatherDisplay:10.37,2013-08-11 16:29:00,
2013-08-11 10:34:00,65.1,48.1,25.45,North,0,1.2,0.0,54,0.00,BKN,,0.00,151.4,WeatherDisplay:10.37,2013-08-11 16:34:00,
2013-08-11 10:39:00,65.7,47.0,25.45,North,0,2.3,2.3,51,0.00,BKN,,0.00,0.0,WeatherDisplay:10.37,2013-08-11 16:39:00,
2013-08-11 10:44:00,65.8,47.2,25.45,North,0,2.3,2.3,51,0.00,BKN,,0.00,0.0,WeatherDisplay:10.37,2013-08-11 16:44:00,
2013-08-11 10:49:00,66.0,45.2,25.45,North,0,3.5,3.5,47,0.00,BKN,,0.00,161.0,WeatherDisplay:10.37,2013-08-11 16:49:00,
2013-08-11 10:54:00,66.4,46.1,25.45,North,0,2.3,2.3,48,0.00,BKN,,0.00,164.0,WeatherDisplay:10.37,2013-08-11 16:54:00,
2013-08-11 10:59:00,66.9,46.6,25.45,North,0,3.5,3.5,48,0.00,BKN,,0.00,0.0,WeatherDisplay:10.37,2013-08-11 16:59:00,
2013-08-11 11:04:00,66.9,46.0,25.45,North,0,2.3,2.3,47,0.00,BKN,,0.00,0.0,WeatherDisplay:10.37,2013-08-11 17:04:00,
2013-08-11 11:09:00,68.2,46.6,25.45,North,0,2.3,2.3,46,0.00,BKN,,0.00,0.0,WeatherDisplay:10.37,2013-08-11 17:09:00,
2013-08-11 11:14:00,68.7,47.1,25.45,North,0,2.3,2.3,46,0.00,BKN,,0.00,0.0,WeatherDisplay:10.37,2013-08-11 17:14:00,
2013-08-11 11:20:00,69.1,46.2,25.45,North,0,3.5,3.5,44,0.00,BKN,,0.00,0.0,WeatherDisplay:10.37,2013-08-11 17:20:00,
2013-08-11 11:25:00,69.6,46.7,25.45,NE,45,3.5,3.5,44,0.00,BKN,,0.00,0.0,WeatherDisplay:10.37,2013-08-11 17:25:00,
2013-08-11 11:30:00,70.2,46.6,25.45,North,0,2.3,2.3,43,0.00,BKN,,0.00,0.0,WeatherDisplay:10.37,2013-08-11 17:30:00,
2013-08-11 11:35:00,70.5,46.3,25.45,North,0,2.3,0.0,42,0.00,BKN,,0.00,0.0,WeatherDisplay:10.37,2013-08-11 17:35:00,
2013-08-11 11:40:00,71.1,46.8,25.45,North,0,3.5,3.5,42,0.00,BKN,,0.00,189.8,WeatherDisplay:10.37,2013-08-11 17:40:00,
2013-08-11 11:45:00,71.6,44.6,25.44,NW,315,3.5,3.5,38,0.00,BKN,,0.00,0.0,WeatherDisplay:10.37,2013-08-11 17:45:00,
2013-08-11 11:50:00,72.1,45.8,25.44,NW,315,3.5,3.5,39,0.00,BKN,,0.00,194.5,WeatherDisplay:10.37,2013-08-11 17:50:00,
2013-08-11 11:55:00,72.9,45.8,25.44,North,0,3.5,3.5,38,0.00,BKN,,0.00,0.0,WeatherDisplay:10.37,2013-08-11 17:55:00,
2013-08-11 12:00:00,73.4,46.9,25.44,North,0,4.6,4.6,39,0.00,BKN,,0.00,198.8,WeatherDisplay:10.37,2013-08-11 18:00:00,
2013-08-11 12:05:00,73.4,46.2,25.43,NW,315,4.6,4.6,38,0.00,BKN,,0.00,0.0,WeatherDisplay:10.37,2013-08-11 18:05:00,
2013-08-11 12:10:00,75.2,46.4,25.43,WNW,292,5.8,5.8,36,0.00,BKN,,0.00,0.0,WeatherDisplay:10.37,2013-08-11 18:10:00,
2013-08-11 12:15:00,76.3,47.4,25.44,SW,225,3.5,3.5,36,0.00,BKN,,0.00,0.0,WeatherDisplay:10.37,2013-08-11 18:15:00,
2013-08-11 12:20:00,77.2,47.4,25.43,North,0,4.6,4.6,35,0.00,BKN,,0.00,206.4,WeatherDisplay:10.37,2013-08-11 18:20:00,
2013-08-11 12:25:00,77.4,47.6,25.43,SW,225,3.5,3.5,35,0.00,BKN,,0.00,0.0,WeatherDisplay:10.37,2013-08-11 18:25:00,
2013-08-11 12:31:00,77.5,47.7,25.43,NW,315,3.5,4.5,35,0.00,BKN,,0.00,0.0,WeatherDisplay:10.37,2013-08-11 18:31:00,
2013-08-11 12:37:00,77.5,48.5,25.43,NW,315,6.9,6.9,36,0.00,BKN,,0.00,211.5,WeatherDisplay:10.37,2013-08-11 18:37:00,
2013-08-11 12:42:00,77.4,49.8,25.43,NNW,338,6.9,6.9,38,0.00,BKN,,0.00,0.0,WeatherDisplay:10.37,2013-08-11 18:42:00,
2013-08-11 12:47:00,77.5,49.9,25.43,SW,225,5.8,0.0,38,0.00,BKN,,0.00,214.0,WeatherDisplay:10.37,2013-08-11 18:47:00,
2013-08-11 12:52:00,78.1,49.7,25.43,NW,315,6.9,6.9,37,0.00,BKN,,0.00,215.0,WeatherDisplay:10.37,2013-08-11 18:52:00,
2013-08-11 12:57:00,78.1,49.7,25.43,North,0,8.1,8.1,37,0.00,BKN,,0.00,215.8,WeatherDisplay:10.37,2013-08-11 18:57:00,
2013-08-11 13:02:00,78.3,49.1,25.42,North,0,6.9,6.9,36,0.00,BKN,,0.00,216.6,WeatherDisplay:10.37,2013-08-11 19:02:00,
2013-08-11 13:08:00,79.2,48.4,25.43,NW,315,6.9,6.9,34,0.00,BKN,,0.00,217.4,WeatherDisplay:10.37,2013-08-11 19:08:00,
2013-08-11 13:13:00,79.3,47.7,25.42,West,270,8.1,8.1,33,0.00,BKN,,0.00,218.0,WeatherDisplay:10.37,2013-08-11 19:13:00,
2013-08-11 13:18:00,79.7,48.8,25.42,North,0,4.6,4.6,34,0.00,BKN,,0.00,218.5,WeatherDisplay:10.37,2013-08-11 19:18:00,
2013-08-11 13:23:00,80.2,48.5,25.42,NW,315,8.1,8.1,33,0.00,BKN,,0.00,0.0,WeatherDisplay:10.37,2013-08-11 19:23:00,
2013-08-11 13:28:00,80.6,48.8,25.42,WNW,292,5.8,5.8,33,0.00,BKN,,0.00,219.1,WeatherDisplay:10.37,2013-08-11 19:28:00,
2013-08-11 13:33:00,80.8,47.3,25.42,NW,315,5.8,5.8,31,0.00,BKN,,0.00,219.1,WeatherDisplay:10.37,2013-08-11 19:33:00,
2013-08-11 13:38:00,81.3,47.8,25.42,North,0,6.9,6.9,31,0.00,BKN,,0.00,0.0,WeatherDisplay:10.37,2013-08-11 19:38:00,
2013-08-11 13:43:00,81.7,48.9,25.42,North,0,4.6,4.6,32,0.00,BKN,,0.00,0.0,WeatherDisplay:10.37,2013-08-11 19:43:00,
2013-08-11 13:48:00,82.6,47.1,25.41,West,270,6.9,6.9,29,0.00,BKN,,0.00,0.0,WeatherDisplay:10.37,2013-08-11 19:48:00,
2013-08-11 13:55:00,82.9,47.4,25.41,NW,315,8.1,8.1,29,0.00,BKN,,0.00,218.3,WeatherDisplay:10.37,2013-08-11 19:55:00,
2013-08-11 14:00:00,83.1,46.6,25.41,North,0,5.8,5.8,28,0.00,BKN,,0.00,0.0,WeatherDisplay:10.37,2013-08-11 20:00:00,
2013-08-11 14:05:00,82.9,46.5,25.41,North,0,6.9,6.9,28,0.00,BKN,,0.00,0.0,WeatherDisplay:10.37,2013-08-11 20:05:00,
2013-08-11 14:10:00,83.1,46.6,25.41,NW,315,9.2,9.2,28,0.00,BKN,,0.00,0.0,WeatherDisplay:10.37,2013-08-11 20:10:00,
2013-08-11 14:15:00,83.1,46.6,25.42,NW,315,8.1,8.1,28,0.00,BKN,,0.00,215.4,WeatherDisplay:10.37,2013-08-11 20:15:00,
2013-08-11 14:20:00,82.9,45.5,25.42,NNW,338,9.2,9.2,27,0.00,BKN,,0.00,0.0,WeatherDisplay:10.37,2013-08-11 20:20:00,
2013-08-11 14:25:00,82.9,45.5,25.42,NNE,22,8.1,8.1,27,0.00,BKN,,0.00,0.0,WeatherDisplay:10.37,2013-08-11 20:25:00,
2013-08-11 14:30:00,82.9,46.5,25.42,North,0,8.1,8.1,28,0.00,BKN,,0.00,0.0,WeatherDisplay:10.37,2013-08-11 20:30:00,
2013-08-11 14:35:00,81.9,45.6,25.42,NW,315,4.6,4.6,28,0.00,BKN,,0.00,0.0,WeatherDisplay:10.37,2013-08-11 20:35:00,
2013-08-11 14:40:00,80.6,44.5,25.42,NE,45,5.8,5.8,28,0.00,BKN,,0.00,0.0,WeatherDisplay:10.37,2013-08-11 20:40:00,
2013-08-11 14:45:00,79.7,43.7,25.42,West,270,4.6,4.6,28,0.00,BKN,,0.00,0.0,WeatherDisplay:10.37,2013-08-11 20:45:00,
2013-08-11 14:50:00,79.3,44.3,25.42,West,270,5.8,5.8,29,0.00,BKN,,0.00,0.0,WeatherDisplay:10.37,2013-08-11 20:50:00,
2013-08-11 14:55:00,79.3,43.4,25.44,West,270,4.6,4.6,28,0.00,BKN,,0.00,0.0,WeatherDisplay:10.37,2013-08-11 20:55:00,
2013-08-11 15:00:00,79.0,44.0,25.44,NE,45,4.6,4.6,29,0.00,BKN,,0.00,0.0,WeatherDisplay:10.37,2013-08-11 21:00:00,
2013-08-11 15:05:00,79.0,44.0,25.44,NE,45,3.5,3.5,29,0.00,BKN,,0.00,0.0,WeatherDisplay:10.37,2013-08-11 21:05:00,
2013-08-11 15:10:00,78.3,44.3,25.44,East,90,1.2,0.0,30,0.00,BKN,,0.00,198.4,WeatherDisplay:10.37,2013-08-11 21:10:00,
2013-08-11 15:15:00,78.3,44.3,25.44,NW,315,1.2,1.6,30,0.00,BKN,,0.00,0.0,WeatherDisplay:10.37,2013-08-11 21:15:00,
2013-08-11 15:21:00,78.4,44.4,25.44,NW,315,5.8,5.8,30,0.00,BKN,,0.00,193.5,WeatherDisplay:10.37,2013-08-11 21:21:00,
2013-08-11 15:26:00,79.2,45.0,25.44,NW,315,3.5,3.5,30,0.00,BKN,,0.00,191.3,WeatherDisplay:10.37,2013-08-11 21:26:00,
2013-08-11 15:31:00,80.2,45.1,25.44,SE,135,5.8,5.8,29,0.00,BKN,,0.00,188.8,WeatherDisplay:10.37,2013-08-11 21:31:00,
2013-08-11 15:36:00,81.5,46.2,25.43,NW,315,3.5,3.5,29,0.00,BKN,,0.00,186.1,WeatherDisplay:10.37,2013-08-11 21:36:00,
2013-08-11 15:41:00,82.8,46.3,25.44,NE,45,3.5,3.5,28,0.00,BKN,,0.00,0.0,WeatherDisplay:10.37,2013-08-11 21:41:00,
2013-08-11 15:46:00,82.4,44.1,25.44,NE,45,4.6,4.6,26,0.00,BKN,,0.00,181.0,WeatherDisplay:10.37,2013-08-11 21:46:00,
2013-08-11 15:51:00,82.0,43.8,25.44,NW,315,8.1,8.1,26,0.00,BKN,,0.00,178.2,WeatherDisplay:10.37,2013-08-11 21:51:00,
2013-08-11 15:56:00,82.0,42.7,25.44,North,0,6.9,6.9,25,0.00,BKN,,0.00,175.3,WeatherDisplay:10.37,2013-08-11 21:56:00,
2013-08-11 16:01:00,83.1,46.6,25.44,NNE,22,2.3,2.3,28,0.00,BKN,,0.00,0.0,WeatherDisplay:10.37,2013-08-11 22:01:00,
2013-08-11 16:06:00,83.1,46.6,25.44,NNE,22,2.3,2.3,28,0.00,BKN,,0.00,169.6,WeatherDisplay:10.37,2013-08-11 22:06:00,
2013-08-11 16:11:00,82.0,43.8,25.43,NE,45,3.5,3.5,26,0.00,BKN,,0.00,0.0,WeatherDisplay:10.37,2013-08-11 22:11:00,
2013-08-11 16:16:00,81.5,44.3,25.44,East,90,3.5,3.5,27,0.00,BKN,,0.00,0.0,WeatherDisplay:10.37,2013-08-11 22:16:00,
2013-08-11 16:21:00,81.3,43.1,25.43,NNW,338,3.5,3.5,26,0.00,BKN,,0.00,0.0,WeatherDisplay:10.37,2013-08-11 22:21:00,
2013-08-11 16:26:00,81.5,43.3,25.43,North,0,2.3,0.0,26,0.00,BKN,,0.00,0.0,WeatherDisplay:10.37,2013-08-11 22:26:00,
2013-08-11 16:31:00,81.5,45.2,25.42,NW,315,3.5,0.0,28,0.00,BKN,,0.00,0.0,WeatherDisplay:10.37,2013-08-11 22:31:00,
2013-08-11 16:36:00,81.5,45.2,25.42,SW,225,1.2,0.0,28,0.00,BKN,,0.00,0.0,WeatherDisplay:10.37,2013-08-11 22:36:00,
2013-08-11 16:41:00,81.5,45.2,25.42,East,90,1.2,0.0,28,0.00,BKN,,0.00,0.0,WeatherDisplay:10.37,2013-08-11 22:41:00,
2013-08-11 16:47:00,81.1,44.0,25.42,South,180,3.5,0.0,27,0.00,BKN,,0.00,143.4,WeatherDisplay:10.37,2013-08-11 22:47:00,
2013-08-11 16:52:00,81.1,44.0,25.42,NE,45,3.5,3.5,27,0.00,BKN,,0.00,139.9,WeatherDisplay:10.37,2013-08-11 22:52:00,
2013-08-11 16:57:00,81.5,44.3,25.42,East,90,2.3,0.0,27,0.00,BKN,,0.00,136.4,WeatherDisplay:10.37,2013-08-11 22:57:00,
2013-08-11 17:02:00,81.9,44.6,25.42,SSE,158,3.5,3.5,27,0.00,BKN,,0.00,133.2,WeatherDisplay:10.37,2013-08-11 23:02:00,
2013-08-11 17:07:00,81.9,44.6,25.42,SSE,158,3.5,3.5,27,0.00,BKN,,0.00,129.7,WeatherDisplay:10.37,2013-08-11 23:07:00,
2013-08-11 17:12:00,80.8,43.7,25.42,East,90,3.5,3.5,27,0.00,BKN,,0.00,0.0,WeatherDisplay:10.37,2013-08-11 23:12:00,
2013-08-11 17:17:00,80.4,43.4,25.43,East,90,3.5,3.5,27,0.00,BKN,,0.00,122.5,WeatherDisplay:10.37,2013-08-11 23:17:00,
2013-08-11 17:22:00,79.3,42.4,25.43,SE,135,5.8,5.8,27,0.00,BKN,,0.00,119.0,WeatherDisplay:10.37,2013-08-11 23:22:00,
2013-08-11 17:27:00,78.3,43.4,25.43,NE,45,4.6,4.6,29,0.00,BKN,,0.00,115.6,WeatherDisplay:10.37,2013-08-11 23:27:00,
2013-08-11 17:32:00,77.2,42.5,25.44,SE,135,4.6,4.6,29,0.00,BKN,,0.00,111.9,WeatherDisplay:10.37,2013-08-11 23:32:00,
2013-08-11 17:37:00,76.5,41.8,25.43,NE,45,4.6,4.6,29,0.00,BKN,,0.00,108.4,WeatherDisplay:10.37,2013-08-11 23:37:00,
2013-08-11 17:42:00,75.7,42.1,25.43,SE,135,1.2,0.0,30,0.00,BKN,,0.00,0.0,WeatherDisplay:10.37,2013-08-11 23:42:00,
2013-08-11 17:47:00,75.4,40.9,25.43,South,180,3.5,3.5,29,0.00,BKN,,0.00,0.0,WeatherDisplay:10.37,2013-08-11 23:47:00,
2013-08-11 17:52:00,75.4,40.9,25.43,SSE,158,3.5,3.5,29,0.00,BKN,,0.00,97.8,WeatherDisplay:10.37,2013-08-11 23:52:00,
2013-08-11 17:57:00,75.2,40.7,25.43,NE,45,3.5,3.5,29,0.00,BKN,,0.00,0.0,WeatherDisplay:10.37,2013-08-11 23:57:00,
2013-08-11 18:02:00,75.0,40.6,25.42,SE,135,1.2,0.0,29,0.00,BKN,,0.00,0.0,WeatherDisplay:10.37,2013-08-12 00:02:00,
2013-08-11 18:07:00,74.8,43.0,25.42,West,270,1.2,1.2,32,0.00,BKN,,0.00,0.0,WeatherDisplay:10.37,2013-08-12 00:07:00,
2013-08-11 18:12:00,74.7,42.0,25.42,SE,135,4.6,4.6,31,0.00,BKN,,0.00,83.9,WeatherDisplay:10.37,2013-08-12 00:12:00,
2013-08-11 18:17:00,74.5,41.9,25.42,SW,225,5.8,5.8,31,0.00,BKN,,0.00,0.0,WeatherDisplay:10.37,2013-08-12 00:17:00,
2013-08-11 18:22:00,74.3,41.7,25.43,SW,225,4.6,4.6,31,0.00,BKN,,0.00,0.0,WeatherDisplay:10.37,2013-08-12 00:22:00,
2013-08-11 18:27:00,74.1,40.7,25.43,South,180,3.5,3.5,30,0.00,BKN,,0.00,0.0,WeatherDisplay:10.37,2013-08-12 00:27:00,
2013-08-11 18:32:00,74.1,40.7,25.44,SE,135,3.5,0.0,30,0.00,BKN,,0.00,0.0,WeatherDisplay:10.37,2013-08-12 00:32:00,
2013-08-11 18:37:00,74.1,40.7,25.44,SW,225,5.8,5.8,30,0.00,BKN,,0.00,66.9,WeatherDisplay:10.37,2013-08-12 00:37:00,
2013-08-11 18:42:00,74.1,40.7,25.45,NW,315,4.6,4.6,30,0.00,BKN,,0.00,0.0,WeatherDisplay:10.37,2013-08-12 00:42:00,
2013-08-11 18:48:00,74.1,40.7,25.45,West,270,3.5,3.5,30,0.00,BKN,,0.00,0.0,WeatherDisplay:10.37,2013-08-12 00:48:00,
2013-08-11 18:53:00,74.1,39.8,25.45,West,270,6.9,6.9,29,0.00,BKN,,0.00,56.5,WeatherDisplay:10.37,2013-08-12 00:53:00,
2013-08-11 18:58:00,74.1,39.8,25.45,NW,315,2.3,2.3,29,0.00,BKN,,0.00,0.0,WeatherDisplay:10.37,2013-08-12 00:58:00,
2013-08-11 19:03:00,74.1,39.8,25.45,NW,315,1.2,1.2,29,0.00,BKN,,0.00,0.0,WeatherDisplay:10.37,2013-08-12 01:03:00,
2013-08-11 19:09:00,73.8,40.4,25.45,South,180,1.2,1.2,30,0.00,BKN,,0.00,0.0,WeatherDisplay:10.37,2013-08-12 01:09:00,
2013-08-11 19:14:00,73.8,41.2,25.46,South,180,1.2,0.0,31,0.00,BKN,,0.00,43.4,WeatherDisplay:10.37,2013-08-12 01:14:00,
2013-08-11 19:19:00,73.4,40.9,25.46,ESE,112,3.5,3.5,31,0.00,BKN,,0.00,0.0,WeatherDisplay:10.37,2013-08-12 01:19:00,
2013-08-11 19:25:00,73.0,39.8,25.47,South,180,2.3,2.3,30,0.00,BKN,,0.00,37.0,WeatherDisplay:10.37,2013-08-12 01:25:00,
2013-08-11 19:30:00,72.9,39.6,25.46,South,180,5.8,0.0,30,0.00,BKN,,0.00,34.2,WeatherDisplay:10.37,2013-08-12 01:30:00,
2013-08-11 19:35:00,72.7,38.6,25.47,SE,135,4.6,4.6,29,0.00,BKN,,0.00,31.3,WeatherDisplay:10.37,2013-08-12 01:35:00,
2013-08-11 19:40:00,72.3,38.3,25.47,NW,315,2.2,0.0,29,0.00,BKN,,0.00,0.0,WeatherDisplay:10.37,2013-08-12 01:40:00,
2013-08-11 19:45:00,72.0,38.8,25.46,NW,315,2.3,0.0,30,0.00,BKN,,0.00,26.0,WeatherDisplay:10.37,2013-08-12 01:45:00,
2013-08-11 19:50:00,71.8,38.7,25.47,SE,135,3.5,3.5,30,0.00,BKN,,0.00,0.0,WeatherDisplay:10.37,2013-08-12 01:50:00,
2013-08-11 19:55:00,71.6,39.3,25.46,South,180,3.5,3.5,31,0.00,BKN,,0.00,0.0,WeatherDisplay:10.37,2013-08-12 01:55:00,
2013-08-11 20:00:00,71.2,39.9,25.45,SE,135,3.5,3.5,32,0.00,BKN,,0.00,0.0,WeatherDisplay:10.37,2013-08-12 02:00:00,
2013-08-11 20:05:00,71.2,39.9,25.44,SE,135,2.3,2.3,32,0.00,BKN,,0.00,0.0,WeatherDisplay:10.37,2013-08-12 02:05:00,
2013-08-11 20:10:00,70.5,38.4,25.44,South,180,2.3,2.3,31,0.00,BKN,,0.00,13.5,WeatherDisplay:10.37,2013-08-12 02:10:00,
2013-08-11 20:15:00,70.3,38.3,25.45,SW,225,1.2,0.0,31,0.00,BKN,,0.00,0.0,WeatherDisplay:10.37,2013-08-12 02:15:00,
2013-08-11 20:20:00,70.2,39.7,25.45,South,180,0.0,0.0,33,0.00,BKN,,0.00,0.0,WeatherDisplay:10.37,2013-08-12 02:20:00,
2013-08-11 20:27:00,70.2,39.7,25.28,North,0,0.0,0.0,33,0.00,CLR,,0.00,,WeatherDisplay:10.37,2013-08-12 02:27:00,
2013-08-11 20:32:00,69.3,41.2,25.45,South,180,0.0,0.0,36,0.00,BKN,,0.00,0.0,WeatherDisplay:10.37,2013-08-12 02:32:00,
2013-08-11 20:38:00,68.7,39.2,25.45,South,180,2.3,2.3,34,0.00,BKN,,0.00,1.4,WeatherDisplay:10.37,2013-08-12 02:38:00,
2013-08-11 20:43:00,68.5,39.0,25.45,SW,225,1.2,0.0,34,0.00,CLR,,0.00,0.0,WeatherDisplay:10.37,2013-08-12 02:43:00,
2013-08-11 20:48:00,68.2,42.3,25.46,East,90,1.2,0.0,39,0.00,CLR,,0.00,0.0,WeatherDisplay:10.37,2013-08-12 02:48:00,
2013-08-11 20:53:00,67.6,41.1,25.46,SSW,202,0.0,0.0,38,0.00,CLR,,0.00,0.0,WeatherDisplay:10.37,2013-08-12 02:53:00,
2013-08-11 20:58:00,67.3,40.1,25.46,SW,225,3.5,3.5,37,0.00,CLR,,0.00,0.0,WeatherDisplay:10.37,2013-08-12 02:58:00,
2013-08-11 21:03:00,67.3,41.5,25.46,SW,225,1.2,0.0,39,0.00,CLR,,0.00,0.0,WeatherDisplay:10.37,2013-08-12 03:03:00,
2013-08-11 21:08:00,66.7,41.0,25.46,South,180,2.3,2.3,39,0.00,CLR,,0.00,0.0,WeatherDisplay:10.37,2013-08-12 03:08:00,
2013-08-11 21:13:00,66.4,40.0,25.47,South,180,1.2,0.0,38,0.00,CLR,,0.00,0.0,WeatherDisplay:10.37,2013-08-12 03:13:00,
2013-08-11 21:18:00,66.0,42.3,25.46,West,270,0.0,0.0,42,0.00,CLR,,0.00,0.0,WeatherDisplay:10.37,2013-08-12 03:18:00,
2013-08-11 21:23:00,65.7,40.7,25.47,South,180,2.3,2.3,40,0.00,CLR,,0.00,0.0,WeatherDisplay:10.37,2013-08-12 03:23:00,
2013-08-11 21:28:00,65.3,41.6,25.46,South,180,1.2,0.0,42,0.00,CLR,,0.00,0.0,WeatherDisplay:10.37,2013-08-12 03:28:00,
2013-08-11 21:33:00,65.1,42.1,25.46,South,180,0.0,0.0,43,0.00,CLR,,0.00,0.0,WeatherDisplay:10.37,2013-08-12 03:33:00,
2013-08-11 21:38:00,64.8,41.1,25.46,SW,225,0.0,0.0,42,0.00,CLR,,0.00,0.0,WeatherDisplay:10.37,2013-08-12 03:38:00,
2013-08-11 21:43:00,64.4,42.0,25.46,South,180,0.0,0.0,44,0.00,CLR,,0.00,0.0,WeatherDisplay:10.37,2013-08-12 03:43:00,
2013-08-11 21:49:00,64.0,41.7,25.46,West,270,0.0,0.0,44,0.00,CLR,,0.00,0.0,WeatherDisplay:10.37,2013-08-12 03:49:00,
2013-08-11 21:54:00,63.7,40.8,25.46,West,270,0.0,0.0,43,0.00,CLR,,0.00,0.0,WeatherDisplay:10.37,2013-08-12 03:54:00,
2013-08-11 21:59:00,63.5,41.8,25.46,West,270,0.0,0.0,45,0.00,CLR,,0.00,0.0,WeatherDisplay:10.37,2013-08-12 03:59:00,
2013-08-11 22:01:00,63.5,41.2,25.46,South,180,0.0,0.0,44,0.00,CLR,,0.00,0.0,WeatherDisplay:10.37,2013-08-12 04:01:00,
2013-08-11 22:02:00,63.5,41.2,25.47,South,180,0.0,0.0,44,0.00,CLR,,0.00,0.0,WeatherDisplay:10.37,2013-08-12 04:02:00,
2013-08-11 22:03:00,63.5,41.2,25.47,South,180,0.0,0.0,44,0.00,CLR,,0.00,0.0,WeatherDisplay:10.37,2013-08-12 04:03:00,
2013-08-11 22:04:00,63.5,41.2,25.47,South,180,0.0,0.0,44,0.00,CLR,,0.00,0.0,WeatherDisplay:10.37,2013-08-12 04:04:00,
2013-08-11 22:09:00,62.8,41.7,25.47,West,270,1.2,0.0,46,0.00,CLR,,0.00,0.0,WeatherDisplay:10.37,2013-08-12 04:09:00,
2013-08-11 22:14:00,62.6,42.6,25.47,SW,225,0.0,0.0,48,0.00,CLR,,0.00,0.0,WeatherDisplay:10.37,2013-08-12 04:14:00,
2013-08-11 22:19:00,62.2,41.2,25.48,West,270,3.5,3.5,46,0.00,CLR,,0.00,0.0,WeatherDisplay:10.37,2013-08-12 04:19:00,
2013-08-11 22:24:00,62.1,42.7,25.48,SW,225,0.0,0.0,49,0.00,CLR,,0.00,0.0,WeatherDisplay:10.37,2013-08-12 04:24:00,
2013-08-11 22:29:00,61.7,41.8,25.47,South,180,0.0,0.0,48,0.00,CLR,,0.00,0.0,WeatherDisplay:10.37,2013-08-12 04:29:00,
2013-08-11 22:34:00,61.3,41.5,25.47,SW,225,0.0,0.0,48,0.00,CLR,,0.00,0.0,WeatherDisplay:10.37,2013-08-12 04:34:00,
2013-08-11 22:39:00,61.2,41.8,25.48,SW,225,1.2,0.0,49,0.00,CLR,,0.00,0.0,WeatherDisplay:10.37,2013-08-12 04:39:00,
2013-08-11 22:44:00,61.0,41.7,25.48,South,180,1.2,1.2,49,0.00,CLR,,0.00,0.0,WeatherDisplay:10.37,2013-08-12 04:44:00,
2013-08-11 22:49:00,60.8,41.0,25.48,South,180,0.0,0.0,48,0.00,CLR,,0.00,0.0,WeatherDisplay:10.37,2013-08-12 04:49:00,
2013-08-11 22:54:00,60.8,41.0,25.48,South,180,0.0,0.0,48,0.00,CLR,,0.00,0.0,WeatherDisplay:10.37,2013-08-12 04:54:00,
2013-08-11 22:59:00,60.8,41.0,25.48,South,180,1.2,0.0,48,0.00,CLR,,0.00,0.0,WeatherDisplay:10.37,2013-08-12 04:59:00,
2013-08-11 23:04:00,60.8,41.0,25.48,South,180,0.0,0.0,48,0.00,CLR,,0.00,0.0,WeatherDisplay:10.37,2013-08-12 05:04:00,
2013-08-11 23:09:00,60.6,41.3,25.48,South,180,0.0,0.0,49,0.00,CLR,,0.00,0.0,WeatherDisplay:10.37,2013-08-12 05:09:00,
2013-08-11 23:14:00,60.3,40.5,25.48,South,180,0.0,0.0,48,0.00,CLR,,0.00,0.0,WeatherDisplay:10.37,2013-08-12 05:14:00,
2013-08-11 23:19:00,59.9,40.1,25.47,West,270,1.2,0.0,48,0.00,CLR,,0.00,0.0,WeatherDisplay:10.37,2013-08-12 05:19:00,
2013-08-11 23:24:00,59.5,40.3,25.48,West,270,0.0,0.0,49,0.00,CLR,,0.00,0.0,WeatherDisplay:10.37,2013-08-12 05:24:00,
2013-08-11 23:29:00,59.2,40.5,25.48,South,180,1.2,0.0,50,0.00,CLR,,0.00,0.0,WeatherDisplay:10.37,2013-08-12 05:29:00,
2013-08-11 23:34:00,58.6,40.6,25.47,South,180,2.3,2.3,51,0.00,CLR,,0.00,0.0,WeatherDisplay:10.37,2013-08-12 05:34:00,
2013-08-11 23:39:00,58.3,40.7,25.47,South,180,1.2,0.0,52,0.00,CLR,,0.00,0.0,WeatherDisplay:10.37,2013-08-12 05:39:00,
2013-08-11 23:44:00,57.6,40.5,25.47,South,180,0.0,0.0,53,0.00,CLR,,0.00,0.0,WeatherDisplay:10.37,2013-08-12 05:44:00,
2013-08-11 23:49:00,57.4,40.4,25.48,South,180,2.3,2.3,53,0.00,CLR,,0.00,0.0,WeatherDisplay:10.37,2013-08-12 05:49:00,
2013-08-11 23:54:00,57.2,40.2,25.47,South,180,1.2,0.0,53,0.00,CLR,,0.00,0.0,WeatherDisplay:10.37,2013-08-12 05:54:00,
2013-08-11 23:59:00,57.0,40.0,25.48,South,180,0.0,0.0,53,0.00,CLR,,0.00,0.0,WeatherDisplay:10.37,2013-08-12 05:59:00,